Regional Weather Roundup
Issued by NWS

Home | Current Version | Previous Version | Graphics & Text | Print | Product List | Glossary On
Versions: 1 2 3 4 5 6 7 8 9 10 11 12 13 14 15 16 17 18 19 20 21 22 23 24 25 26 27 28 29 30 31 32 33 34 35 36 37 38 39 40 41 42 43 44 45 46 47 48 49 50
937
ASUS43 KFSD 311610
RWRSD

WEATHER ROUNDUP FOR SOUTH DAKOTA
NATIONAL WEATHER SERVICE SIOUX FALLS SD
1100 AM CDT WED AUG 31 2016

NOTE: "FAIR" INDICATES FEW OR NO CLOUDS BELOW 12,000 FEET WITH NO
SIGNIFICANT WEATHER AND/OR OBSTRUCTIONS TO VISIBILITY.


SDZ001>005-009-010-012>017-311700-
NORTHWEST AND NORTH CENTRAL SOUTH DAKOTA

CITY           SKY/WX    TMP DP  RH WIND       PRES   REMARKS
BUFFALO          N/A     77  60  55 SE8       30.11S
FAITH            N/A     75  62  64 SE17      30.20R
MOBRIDGE       SUNNY     78  60  53 S17G25    30.20R
$$

SDZ012>016-024>037-041>051-057-063-072>074-311700-
SOUTHWEST AND SOUTH CENTRAL SOUTH DAKOTA

CITY           SKY/WX    TMP DP  RH WIND       PRES   REMARKS
RAPID CTY ARPT SUNNY     75  61  61 S15       30.21R
PIERRE         MOSUNNY   75  63  66 E16       30.23R
CUSTER         SUNNY     68  50  52 VRB7      30.33R
ELLSWORTH AFB  SUNNY     75  61  62 S15       30.19
PHILIP         SUNNY     76  65  68 SE8       30.21R
PINE RIDGE     MOSUNNY   68  63  84 S13       30.26R
WINNER         FAIR      78  67  68 S6        30.25R
$$

SDZ004>011-016>023-039-040-311700-
NORTHEAST SOUTH DAKOTA

CITY           SKY/WX    TMP DP  RH WIND       PRES   REMARKS
ABERDEEN       PTSUNNY   70  59  68 SE7       30.25S
WATERTOWN      PTSUNNY   72  55  55 CALM      30.26R
BROOKINGS      PTSUNNY   73  58  59 CALM      30.25R
SISSETON         N/A     73  57  57 CALM      30.24S
$$

SDZ017-020-022-023-036>040-048>070-311700-
SOUTHEAST SOUTH DAKOTA

CITY           SKY/WX    TMP DP  RH WIND       PRES   REMARKS
SIOUX FALLS    MOSUNNY   75  57  53 CALM      30.23F
HURON          CLOUDY    67  61  81 SE3       30.24R
CHAMBERLAIN    CLOUDY    70  68  93 NE9       30.27R
MITCHELL       PTSUNNY   75  65  70 S8        30.23S
YANKTON        SUNNY     72  61  68 E6        30.22S
$$

ABBREVIATIONS USED IN REMARKS
   TC - TEMPERATURE IN CELSIUS
  WCI - WIND CHILL INDEX
   HX - HEAT INDEX
  VSB - VISIBILITY





USA.gov is the U.S. government's official web portal to all federal, state and local government web resources and services.